Change the Weather History Date:

Tuesday, November 20, 2012

  Actual Average Record
Temperature  
Mean Temperature 60 °F -  
Max Temperature 70 °F 68 °F 79 °F (2011)
Min Temperature 49 °F 47 °F 26 °F (2014)
Degree Days  
Heating Degree Days 6    
Growing Degree Days 10 (Base 50)    
Moisture  
Dew Point 49 °F    
Average Humidity 74    
Maximum Humidity 94    
Minimum Humidity 47    
Precipitation  
Precipitation 0.00 in - - ()
Sea Level Pressure  
Sea Level Pressure 30.08 in    
Wind  
Wind Speed 6 mph (North)    
Max Wind Speed 12 mph    
Max Gust Speed -    
Visibility 10 miles    
Events      
Averages and records for this station are not official NWS values.
T = Trace of Precipitation, MM = Missing Value Source: NWS Daily Summary

Daily Weather History Graph

Daily Weather History Graph

Search for Another Location

Airport or City:

Trip Planner

Search our weather history database for the weather conditions in past years. The results will help you decide how hot, cold, wet, or windy it might be!

Date:

Astronomy

Nov. 20, 2012 Rise Set
Actual Time 6:58 AM EST 5:22 PM EST
Civil Twilight 6:31 AM EST 5:48 PM EST
Nautical Twilight 6:02 AM EST 6:18 PM EST
Astronomical Twilight 5:32 AM EST 6:47 PM EST
Moon 12:43 PM EST (11/20) No Moon Set
Length of Visible Light 11h 16m
Length of Day
10h 24m
Waxing Crescent, 51% of the Moon is Illuminated
Nov 20
Waxing Crescent
Nov 28
Full
Dec 6
Last Quarter
Dec 13
New
Dec 20
First Quarter

Hourly Weather History & Observations

Time (EST) Temp. Dew Point Humidity Pressure Visibility Wind Dir Wind Speed Gust Speed Precip Events Conditions
1:55 AM 51.4 °F 49.8 °F 94% 30.10 in 10.0 mi North 4.6 mph - N/A   Clear
2:55 AM 53.1 °F 49.3 °F 87% 30.09 in 10.0 mi North 8.1 mph - N/A   Clear
3:55 AM 52.9 °F 48.0 °F 84% 30.09 in 10.0 mi North 8.1 mph - N/A   Clear
4:55 AM 52.0 °F 47.1 °F 83% 30.09 in 10.0 mi North 9.2 mph - N/A   Clear
5:55 AM 50.9 °F 46.6 °F 85% 30.12 in 10.0 mi North 8.1 mph - N/A   Clear
6:55 AM 49.8 °F 45.9 °F 86% 30.13 in 10.0 mi NNW 6.9 mph - N/A   Clear
7:55 AM 50.9 °F 46.0 °F 83% 30.13 in 10.0 mi NNE 6.9 mph - N/A   Clear
8:55 AM 53.4 °F 46.6 °F 78% 30.14 in 10.0 mi NNE 6.9 mph - N/A   Clear
9:55 AM 57.4 °F 47.5 °F 70% 30.14 in 10.0 mi NNE 8.1 mph - N/A   Clear
10:55 AM 61.3 °F 48.0 °F 62% 30.13 in 10.0 mi North 5.8 mph - N/A   Clear
11:55 AM 66.0 °F 48.4 °F 53% 30.09 in 10.0 mi North 11.5 mph - N/A   Clear
12:55 PM 68.4 °F 48.2 °F 48% 30.06 in 10.0 mi NNW 11.5 mph - N/A   Clear
1:55 PM 70.0 °F 48.9 °F 47% 30.05 in 10.0 mi NNW 9.2 mph - N/A   Clear
2:55 PM 69.4 °F 49.1 °F 48% 30.03 in 10.0 mi North 8.1 mph - N/A   Clear
3:55 PM 68.9 °F 49.3 °F 50% 30.03 in 10.0 mi North 8.1 mph - N/A   Mostly Cloudy
4:55 PM 66.4 °F 49.1 °F 54% 30.03 in 10.0 mi North 6.9 mph - N/A   Scattered Clouds
5:55 PM 60.6 °F 50.0 °F 68% 30.03 in 10.0 mi Calm Calm - N/A   Partly Cloudy
6:55 PM 56.1 °F 50.2 °F 80% 30.04 in 10.0 mi Calm Calm - N/A   Clear
7:55 PM 54.1 °F 50.2 °F 86% 30.06 in 10.0 mi Calm Calm - N/A   Partly Cloudy
8:55 PM 53.1 °F 50.2 °F 90% 30.06 in 10.0 mi Calm Calm - N/A   Clear
9:55 PM 52.3 °F 50.7 °F 94% 30.07 in 10.0 mi Calm Calm - N/A   Scattered Clouds
10:55 PM 52.9 °F 48.9 °F 86% 30.07 in 10.0 mi Calm Calm - N/A   Clear
11:55 PM 51.3 °F 48.7 °F 91% 30.07 in 10.0 mi Calm Calm - N/A   Clear